TimeEDT,TemperatureF,Dew PointF,Humidity,Sea Level PressureIn,VisibilityMPH,Wind Direction,Wind SpeedMPH,Gust SpeedMPH,PrecipitationIn,Events,Conditions,WindDirDegrees,DateUTC
12:40 AM,57.2,55.4,94,30.29,3.0,NNE,5.8,-,0.01,Rain,Light Rain,20,2013-05-02 04:40:00
12:50 AM,57.2,55.4,94,30.29,3.0,NNE,6.9,-,0.02,Rain,Light Rain,20,2013-05-02 04:50:00
12:52 AM,57.0,55.9,96,30.28,3.0,NNE,6.9,-,0.02,Rain,Light Rain,20,2013-05-02 04:52:00
1:03 AM,57.2,55.4,94,30.29,3.0,NE,6.9,-,0.00,Rain,Light Rain,40,2013-05-02 05:03:00
1:52 AM,57.0,55.9,96,30.26,3.0,NE,8.1,-,0.02,Rain,Light Rain,40,2013-05-02 05:52:00
2:17 AM,57.2,55.4,94,30.27,3.0,NE,6.9,-,0.00,Rain,Light Rain,40,2013-05-02 06:17:00
2:52 AM,57.0,55.9,96,30.25,3.0,NE,8.1,-,0.00,Rain,Light Rain,50,2013-05-02 06:52:00
3:13 AM,57.2,55.4,94,30.25,2.5,NE,8.1,-,0.02,Rain,Rain,50,2013-05-02 07:13:00
3:34 AM,57.2,55.4,94,30.25,3.0,NE,8.1,-,0.05,Rain,Light Rain,50,2013-05-02 07:34:00
3:52 AM,57.0,55.9,96,30.24,3.0,NE,9.2,-,0.06,Rain,Light Rain,50,2013-05-02 07:52:00
4:52 AM,57.0,55.9,96,30.24,3.0,ENE,10.4,-,0.01,,Overcast,60,2013-05-02 08:52:00
5:52 AM,57.0,55.9,96,30.24,3.0,ENE,10.4,-,0.00,,Light Drizzle,60,2013-05-02 09:52:00
6:52 AM,57.0,55.9,96,30.26,3.0,ENE,8.1,-,0.00,,Light Drizzle,70,2013-05-02 10:52:00
7:52 AM,57.0,55.9,96,30.27,3.0,ENE,8.1,20.7,0.00,,Light Drizzle,60,2013-05-02 11:52:00
8:52 AM,57.2,57.2,100,30.29,3.0,NE,12.7,-,N/A,,Overcast,50,2013-05-02 12:52:00
9:52 AM,57.9,55.9,93,30.29,3.0,NE,8.1,-,N/A,,Overcast,50,2013-05-02 13:52:00
10:52 AM,57.0,55.0,93,30.30,3.0,NNE,12.7,-,N/A,,Overcast,30,2013-05-02 14:52:00
11:52 AM,59.0,55.0,87,30.30,10.0,ENE,11.5,-,N/A,,Overcast,60,2013-05-02 15:52:00
12:14 PM,60.8,55.4,82,30.31,10.0,ENE,10.4,-,N/A,,Overcast,60,2013-05-02 16:14:00
12:52 PM,60.1,55.9,86,30.30,10.0,NE,11.5,17.3,N/A,,Overcast,50,2013-05-02 16:52:00
1:30 PM,60.8,55.4,82,30.30,10.0,ENE,11.5,-,N/A,,Overcast,70,2013-05-02 17:30:00
1:52 PM,60.1,55.0,83,30.30,10.0,NE,9.2,-,N/A,,Overcast,50,2013-05-02 17:52:00
2:52 PM,62.1,55.9,80,30.29,10.0,NNE,13.8,-,N/A,,Overcast,30,2013-05-02 18:52:00
3:52 PM,62.1,55.9,80,30.27,10.0,NE,10.4,-,N/A,,Overcast,50,2013-05-02 19:52:00
4:52 PM,61.0,55.9,83,30.26,10.0,ENE,9.2,19.6,N/A,,Overcast,60,2013-05-02 20:52:00
5:24 PM,62.6,57.2,82,30.25,10.0,NE,10.4,-,N/A,,Overcast,50,2013-05-02 21:24:00
5:52 PM,63.0,55.9,78,30.24,10.0,NE,10.4,16.1,N/A,,Mostly Cloudy,40,2013-05-02 21:52:00
6:52 PM,62.1,55.9,80,30.23,10.0,NE,9.2,21.9,N/A,,Overcast,50,2013-05-02 22:52:00
7:52 PM,61.0,55.0,81,30.24,10.0,NNE,11.5,-,N/A,,Overcast,30,2013-05-02 23:52:00
8:52 PM,60.1,55.0,83,30.25,10.0,NE,11.5,-,N/A,,Overcast,50,2013-05-03 00:52:00
9:52 PM,60.1,55.0,83,30.25,10.0,NE,12.7,-,N/A,,Overcast,50,2013-05-03 01:52:00
10:03 PM,59.0,55.4,88,30.26,10.0,NE,12.7,-,N/A,,Overcast,50,2013-05-03 02:03:00
10:52 PM,59.0,55.0,87,30.25,10.0,NE,12.7,-,N/A,,Overcast,40,2013-05-03 02:52:00
11:52 PM,59.0,55.0,87,30.24,10.0,ENE,8.1,-,N/A,,Overcast,60,2013-05-03 03:52:00